Weather History for KMRY - April, 2013

Change the Weather History Date:

Sunday, April 21, 2013

  Actual Average Record
Temperature  
Mean Temperature 59 °F 55 °F  
Max Temperature 72 °F 62 °F 91 °F (2009)
Min Temperature 45 °F 47 °F 39 °F (2001)
Degree Days  
Heating Degree Days 6    
Month to date heating degree days 218  
Since 1 July heating degree days 2868  
Cooling Degree Days 0    
Month to date cooling degree days 0  
Year to date cooling degree days 0  
Growing Degree Days 7 (Base 50)    
Moisture  
Dew Point 46 °F    
Average Humidity 64    
Maximum Humidity 93    
Minimum Humidity 35    
Precipitation  
Precipitation 0.00 in - 0.11 in (2001)
Month to date precipitation 0.30  
Year to date precipitation 3.09  
Since 1 July precipitation 11.33  
Sea Level Pressure  
Sea Level Pressure 30.02 in    
Wind  
Wind Speed 3 mph (North)    
Max Wind Speed 10 mph    
Max Gust Speed 15 mph    
Visibility 7 miles    
Events Fog    
T = Trace of Precipitation, MM = Missing Value Source: NWS Daily Summary

Daily Weather History Graph

Daily Weather History Graph

Search for Another Location

Airport or City:

Trip Planner

Search our weather history database for the weather conditions in past years. The results will help you decide how hot, cold, wet, or windy it might be!

Date:

Astronomy

Apr. 21, 2013 Rise Set
Actual Time 6:25 AM PDT 7:47 PM PDT
Civil Twilight 5:58 AM PDT 8:14 PM PDT
Nautical Twilight 5:26 AM PDT 8:46 PM PDT
Astronomical Twilight 4:52 AM PDT 9:20 PM PDT
Moon 3:44 PM PDT (4/21) 3:43 AM PDT (4/21)
Length of Visible Light 14h 16m
Length of Day
13h 21m
Waxing Gibbous, 81% of the Moon is Illuminated
Apr 21
Waxing Gibbous
Apr 25
Full
May 2
Last Quarter
May 9
New
May 17
First Quarter

Hourly Weather History & Observations

Time (PDT) Temp. Windchill Dew Point Humidity Pressure Visibility Wind Dir Wind Speed Gust Speed Precip Events Conditions
12:54 AM 50.0 °F - 46.0 °F 86% 30.07 in 8.0 mi ESE 3.5 mph - N/A   Clear
1:27 AM 48.2 °F - 46.4 °F 93% 30.03 in 7.0 mi Calm Calm - N/A   Scattered Clouds
1:35 AM 48.2 °F - 44.6 °F 87% 30.03 in 7.0 mi Calm Calm - N/A   Mostly Cloudy
1:54 AM 48.9 °F - 46.0 °F 90% 30.06 in 7.0 mi Calm Calm - N/A   Overcast
2:54 AM 48.0 °F - 45.0 °F 89% 30.04 in 5.0 mi East 3.5 mph - N/A   Overcast
3:14 AM 46.4 °F 45.2 °F 44.6 °F 93% 30.00 in 1.5 mi ENE 3.5 mph - N/A   Mostly Cloudy
3:22 AM 44.6 °F - 44.6 °F 100% 30.00 in 0.2 mi Calm Calm - N/A Fog Fog
3:38 AM 46.4 °F 45.2 °F 44.6 °F 93% 30.00 in 1.0 mi ESE 3.5 mph - N/A   Mist
3:41 AM 46.4 °F 44.3 °F 44.6 °F 93% 30.00 in 3.0 mi ESE 4.6 mph - N/A   Mostly Cloudy
3:52 AM 46.4 °F 45.2 °F 44.6 °F 93% 29.99 in 10.0 mi East 3.5 mph - N/A   Scattered Clouds
3:54 AM 46.0 °F 43.9 °F 45.0 °F 96% 30.03 in 10.0 mi East 4.6 mph - N/A   Partly Cloudy
4:54 AM 46.0 °F - 44.1 °F 93% 30.00 in 10.0 mi Calm Calm - N/A   Clear
5:50 AM 48.2 °F - 44.6 °F 87% 29.98 in 9.0 mi Calm Calm - N/A   Scattered Clouds
5:54 AM 48.9 °F - 45.0 °F 86% 30.02 in 9.0 mi Calm Calm - N/A   Scattered Clouds
6:13 AM 48.2 °F - 46.4 °F 93% 29.99 in 3.0 mi Calm Calm - N/A   Mostly Cloudy
6:15 AM 48.2 °F - 46.4 °F 93% 29.99 in 1.5 mi Calm Calm - N/A   Mostly Cloudy
6:52 AM 46.4 °F 44.3 °F 46.4 °F 100% 29.99 in 10.0 mi East 4.6 mph - N/A   Partly Cloudy
6:54 AM 46.9 °F - 46.0 °F 97% 30.03 in 10.0 mi East 4.6 mph - N/A   Partly Cloudy
7:54 AM 48.0 °F - 46.0 °F 93% 30.05 in 7.0 mi Calm Calm - N/A   Clear
8:54 AM 55.9 °F - 48.0 °F 75% 30.06 in 7.0 mi Calm Calm - N/A   Clear
9:54 AM 59.0 °F - 48.0 °F 67% 30.07 in 7.0 mi WNW 4.6 mph - N/A   Clear
10:54 AM 66.9 °F - 48.9 °F 52% 30.07 in 10.0 mi WNW 3.5 mph - N/A   Clear
11:54 AM 70.0 °F - 48.9 °F 47% 30.06 in 9.0 mi NW 6.9 mph - N/A   Clear
12:54 PM 63.0 °F - 46.9 °F 56% 30.05 in 10.0 mi NNW 5.8 mph - N/A   Clear
1:54 PM 64.0 °F - 48.9 °F 58% 30.05 in 8.0 mi NW 6.9 mph - N/A   Clear
2:54 PM 64.0 °F - 48.9 °F 58% 30.04 in 9.0 mi NNW 5.8 mph - N/A   Clear
3:54 PM 62.1 °F - 46.9 °F 58% 30.03 in 10.0 mi NW 8.1 mph - N/A   Clear
4:54 PM 66.0 °F - 46.0 °F 48% 30.02 in 10.0 mi West 3.5 mph - N/A   Clear
5:54 PM 66.0 °F - 44.1 °F 45% 30.01 in 10.0 mi NW 4.6 mph - N/A   Clear
6:54 PM 68.0 °F - 39.9 °F 36% 30.00 in 10.0 mi WSW 5.8 mph - N/A   Clear
7:54 PM 62.1 °F - 44.1 °F 52% 30.00 in 10.0 mi NNW 5.8 mph - N/A   Clear
8:54 PM 55.9 °F - 46.0 °F 69% 30.01 in 9.0 mi Calm Calm - N/A   Clear
9:54 PM 55.0 °F - 45.0 °F 69% 30.01 in 9.0 mi Calm Calm - N/A   Clear
10:54 PM 55.9 °F - 46.9 °F 72% 30.00 in 8.0 mi Calm Calm - N/A   Clear
11:54 PM 53.1 °F - 48.0 °F 83% 30.01 in 5.0 mi WSW 3.5 mph - N/A   Haze